FW4370 Weather Reports


Display with metric or nautical units.
time (UTC)temp
F
wind
direction
speed
MPH
gust
MPH
rain 1hr
in
rain 24hr
in
rain mn
in
humidity
%
barometer
mb
20260508014510 75 248 4.0 10.0 0.00 0.00 0.00 5 1006.6
20260508013002 78 243 2.0 8.0 0.00 0.00 0.00 4 1006.6
20260508011556 79 269 2.0 8.0 0.00 0.00 0.00 3 1006.7
20260508010050 79 275 1.0 7.0 0.00 0.00 0.00 3 1006.6
20260508004545 79 297 1.0 10.0 0.00 0.00 0.00 3 1006.4
20260508003039 79 278 3.0 6.0 0.00 0.00 0.00 3 1006.4
20260508001533 80 284 0.0 2.0 0.00 0.00 0.00 3 1006.6
20260508000026 79 335 2.0 8.0 0.00 0.00 0.00 4 1006.7
20260507234524 79 359 3.0 11.0 0.00 0.00 0.00 4 1006.9
20260507233015 79 352 3.0 8.0 0.00 0.00 0.00 4 1006.9
20260507231515 80 291 1.0 7.0 0.00 0.00 0.00 4 1006.9
20260507230002 79 267 3.0 9.0 0.00 0.00 0.00 5 1006.9
20260507224601 80 284 1.0 8.0 0.00 0.00 0.00 5 1007.2
20260507223057 79 235 1.0 12.0 0.00 0.00 0.00 5 1007.5
20260507221553 80 323 2.0 8.0 0.00 0.00 0.00 6 1007.6
20260507220049 80 226 1.0 9.0 0.00 0.00 0.00 6 1008.0
20260507214549 79 294 2.0 9.0 0.00 0.00 0.00 7 1008.2
20260507213047 78 300 1.0 6.0 0.00 0.00 0.00 8 1008.4
20260507211541 77 84 4.0 12.0 0.00 0.00 0.00 8 1008.7
20260507210038 78 41 4.0 10.0 0.00 0.00 0.00 9 1008.7
20260507204533 77 29 2.0 7.0 0.00 0.00 0.00 9 1008.9
20260507203028 77 229 2.0 8.0 0.00 0.00 0.00 10 1009.2
20260507201531 77 332 2.0 7.0 0.00 0.00 0.00 11 1009.3
20260507200023 77 2 3.0 7.0 0.00 0.00 0.00 11 1009.4
20260507194517 76 282 4.0 7.0 0.00 0.00 0.00 12 1009.9
20260507193011 75 52 3.0 6.0 0.00 0.00 0.00 12 1010.2
20260507191508 75 82 4.0 13.0 0.00 0.00 0.00 13 1010.5
20260507190006 74 321 3.0 10.0 0.00 0.00 0.00 14 1010.6
20260507184608 73 344 4.0 8.0 0.00 0.00 0.00 15 1010.8
20260507183104 73 53 4.0 10.0 0.00 0.00 0.00 16 1010.9
20260507181555 73 86 0.0 9.0 0.00 0.00 0.00 17 1011.1
20260507180051 72 43 2.0 6.0 0.00 0.00 0.00 18 1011.4
20260507174548 71 26 4.0 8.0 0.00 0.00 0.00 19 1011.5
20260507173045 69 51 4.0 9.0 0.00 0.00 0.00 20 1011.9
20260507171548 68 50 2.0 8.0 0.00 0.00 0.00 21 1011.9
20260507170036 67 34 1.0 7.0 0.00 0.00 0.00 22 1011.9
20260507164536 66 72 4.0 7.0 0.00 0.00 0.00 23 1012.0
20260507163031 66 90 4.0 8.0 0.00 0.00 0.00 25 1012.1
20260507161525 65 51 2.0 7.0 0.00 0.00 0.00 26 1012.3
20260507160030 64 60 2.0 6.0 0.00 0.00 0.00 28 1012.5
20260507154519 63 131 1.0 5.0 0.00 0.00 0.00 30 1012.5
20260507153014 62 148 0.0 4.0 0.00 0.00 0.00 31 1012.8
20260507151508 60 142 1.0 5.0 0.00 0.00 0.00 32 1012.9
20260507150005 58 49 1.0 5.0 0.00 0.00 0.00 33 1013.0
20260507144605 57 34 2.0 6.0 0.00 0.00 0.00 34 1013.2
20260507143110 56 88 2.0 6.0 0.00 0.00 0.00 35 1013.1
20260507141613 56 70 2.0 6.0 0.00 0.00 0.00 36 1013.3
20260507140054 55 32 2.0 7.0 0.00 0.00 0.00 36 1013.2
20260507134554 54 55 1.0 5.0 0.00 0.00 0.00 37 1013.1
20260507133048 52 63 1.0 4.0 0.00 0.00 0.00 37 1013.0
20260507131557 50 81 0.0 2.0 0.00 0.00 0.00 36 1012.9
20260507130045 48 22 0.0 0.0 0.00 0.00 0.00 36 1012.8
20260507124541 46 22 0.0 0.0 0.00 0.00 0.00 35 1012.8
20260507123042 45 22 0.0 0.0 0.00 0.00 0.00 35 1012.6
20260507121540 46 22 0.0 0.0 0.00 0.00 0.00 35 1012.6
20260507120031 49 22 0.0 0.0 0.00 0.00 0.00 35 1012.7
20260507114530 48 46 0.0 0.0 0.00 0.00 0.00 34 1012.6
20260507113027 48 46 0.0 0.0 0.00 0.00 0.00 34 1012.8
20260507111523 48 46 0.0 0.0 0.00 0.00 0.00 33 1012.9
20260507110021 49 46 0.0 0.0 0.00 0.00 0.00 33 1013.0
20260507104516 49 68 0.0 2.0 0.00 0.00 0.00 33 1012.9
20260507103014 49 51 0.0 0.0 0.00 0.00 0.00 32 1012.8
20260507101511 50 51 0.0 0.0 0.00 0.00 0.00 32 1012.7
20260507100008 50 51 0.0 0.0 0.00 0.00 0.00 31 1012.7
20260507094505 51 51 0.0 0.0 0.00 0.00 0.00 31 1012.7
20260507093003 50 51 0.0 0.0 0.00 0.00 0.00 30 1012.8
20260507091559 51 51 0.0 0.0 0.00 0.00 0.00 30 1012.9
20260507084555 53 46 0.0 7.0 0.00 0.00 0.00 29 1013.0
20260507083046 54 300 1.0 4.0 0.00 0.00 0.00 29 1012.8
20260507081552 55 283 2.0 6.0 0.00 0.00 0.00 29 1012.8
20260507080040 55 287 2.0 6.0 0.00 0.00 0.00 28 1012.8
20260507074538 56 288 2.0 6.0 0.00 0.00 0.00 28 1012.7
20260507073034 56 269 3.0 7.0 0.00 0.00 0.00 28 1012.8
20260507071535 57 287 3.0 9.0 0.00 0.00 0.00 28 1012.7
20260507070031 57 266 3.0 10.0 0.00 0.00 0.00 27 1012.7
20260507064535 57 260 3.0 9.0 0.00 0.00 0.00 27 1012.7
20260507063023 58 268 3.0 9.0 0.00 0.00 0.00 27 1012.6
20260507061521 58 236 4.0 8.0 0.00 0.00 0.00 27 1012.5
20260507060017 58 294 4.0 8.0 0.00 0.00 0.00 26 1012.5
20260507054516 58 286 4.0 8.0 0.00 0.00 0.00 26 1012.5
20260507053015 58 243 3.0 9.0 0.00 0.00 0.00 26 1012.5
20260507051512 58 258 4.0 10.0 0.00 0.00 0.00 25 1012.3
20260507050026 58 257 4.0 10.0 0.00 0.00 0.00 25 1012.4
20260507044508 59 245 5.0 9.0 0.00 0.00 0.00 25 1012.1
20260507043007 59 231 4.0 11.0 0.00 0.00 0.00 24 1012.1
20260507041510 59 221 4.0 12.0 0.00 0.00 0.00 24 1012.0
20260507040001 59 272 5.0 11.0 0.00 0.00 0.00 24 1011.7
20260507034559 59 250 5.0 13.0 0.00 0.00 0.00 23 1011.4
20260507033057 60 237 5.0 11.0 0.00 0.00 0.00 23 1011.5
20260507031556 60 246 5.0 12.0 0.00 0.00 0.00 22 1011.2
20260507030054 60 254 5.0 8.0 0.00 0.00 0.00 21 1011.0
20260507024550 61 240 4.0 9.0 0.00 0.00 0.00 21 1010.8
20260507023049 62 247 4.0 12.0 0.00 0.00 0.00 20 1010.6
20260507021547 63 259 4.0 9.0 0.00 0.00 0.00 20 1010.4
20260507020100 64 244 4.0 11.0 0.00 0.00 0.00 19 1010.3